TimeEST,TemperatureF,Dew PointF,Humidity,Sea Level PressureIn,VisibilityMPH,Wind Direction,Wind SpeedMPH,Gust SpeedMPH,PrecipitationIn,Events,Conditions,WindDirDegrees,DateUTC
12:02 AM,50.0,48.2,94,30.11,0.2,South,3.5,-,N/A,Fog,Fog,170,2012-12-03 05:02:00
12:45 AM,51.8,50.0,94,30.11,0.5,Calm,Calm,-,N/A,Fog,Fog,0,2012-12-03 05:45:00
12:53 AM,50.0,50.0,100,30.12,0.2,Calm,Calm,-,0.01,Fog,Fog,0,2012-12-03 05:53:00
1:53 AM,53.1,52.0,96,30.11,0.5,Calm,Calm,-,N/A,Fog,Fog,0,2012-12-03 06:53:00
2:53 AM,52.0,51.1,97,30.11,0.2,Calm,Calm,-,N/A,Fog,Fog,0,2012-12-03 07:53:00
3:53 AM,54.0,54.0,100,30.12,0.2,South,3.5,-,N/A,Fog,Fog,180,2012-12-03 08:53:00
4:53 AM,55.0,54.0,96,30.12,0.5,Calm,Calm,-,N/A,Fog,Fog,0,2012-12-03 09:53:00
5:40 AM,55.4,53.6,94,30.11,1.2,South,4.6,-,N/A,,Overcast,170,2012-12-03 10:40:00
5:53 AM,55.0,54.0,96,30.12,0.8,South,3.5,-,N/A,,Mist,180,2012-12-03 10:53:00
6:53 AM,55.0,55.0,100,30.12,0.8,South,4.6,-,N/A,,Mist,170,2012-12-03 11:53:00
7:04 AM,55.4,55.4,100,30.12,1.2,SSE,3.5,-,N/A,,Overcast,160,2012-12-03 12:04:00
7:53 AM,55.9,55.0,97,30.12,1.5,SSE,4.6,-,N/A,,Overcast,150,2012-12-03 12:53:00
8:53 AM,55.9,55.0,97,30.11,0.2,SSE,5.8,-,0.01,Fog,Fog,150,2012-12-03 13:53:00
9:53 AM,57.0,57.0,100,30.10,0.5,SSE,5.8,-,N/A,Fog,Fog,160,2012-12-03 14:53:00
10:24 AM,57.2,57.2,100,30.09,1.2,South,6.9,-,N/A,,Overcast,170,2012-12-03 15:24:00
10:40 AM,57.2,57.2,100,30.09,2.0,South,6.9,-,N/A,,Overcast,170,2012-12-03 15:40:00
10:53 AM,57.9,57.0,97,30.09,2.0,South,9.2,-,N/A,,Overcast,170,2012-12-03 15:53:00
11:08 AM,59.0,57.2,94,30.08,1.8,SSE,5.8,-,N/A,,Overcast,160,2012-12-03 16:08:00
11:38 AM,60.8,57.2,88,30.07,2.0,South,8.1,-,0.00,,Overcast,170,2012-12-03 16:38:00
11:53 AM,60.1,59.0,96,30.06,2.5,South,8.1,-,0.00,,Overcast,170,2012-12-03 16:53:00
12:09 PM,60.8,59.0,94,30.05,3.0,South,8.1,-,0.00,Rain,Light Rain,180,2012-12-03 17:09:00
12:17 PM,60.8,59.0,94,30.05,2.5,South,9.2,-,0.00,Rain,Light Rain,180,2012-12-03 17:17:00
12:27 PM,60.8,59.0,94,30.04,4.0,South,10.4,-,0.00,,Overcast,190,2012-12-03 17:27:00
12:53 PM,62.1,60.1,93,30.04,4.0,South,10.4,-,0.00,,Overcast,180,2012-12-03 17:53:00
1:19 PM,62.6,60.8,94,30.03,4.0,South,10.4,-,N/A,,Overcast,180,2012-12-03 18:19:00
1:39 PM,62.6,59.0,88,30.02,5.0,South,8.1,-,N/A,,Overcast,180,2012-12-03 18:39:00
1:53 PM,64.0,60.1,87,30.01,5.0,South,6.9,-,N/A,,Overcast,180,2012-12-03 18:53:00
2:53 PM,64.0,59.0,84,30.00,7.0,South,10.4,17.3,N/A,,Overcast,190,2012-12-03 19:53:00
3:53 PM,64.0,59.0,84,30.00,9.0,South,11.5,-,N/A,,Overcast,190,2012-12-03 20:53:00
4:17 PM,64.4,59.0,83,30.00,9.0,South,11.5,-,N/A,,Overcast,180,2012-12-03 21:17:00
4:53 PM,64.0,57.9,80,29.99,10.0,South,10.4,-,N/A,,Mostly Cloudy,170,2012-12-03 21:53:00
5:53 PM,63.0,57.9,84,29.99,10.0,South,10.4,-,N/A,,Partly Cloudy,180,2012-12-03 22:53:00
6:53 PM,63.0,57.9,84,29.99,10.0,South,11.5,-,N/A,,Clear,190,2012-12-03 23:53:00
7:53 PM,63.0,57.0,81,29.98,10.0,South,12.7,21.9,N/A,,Clear,190,2012-12-04 00:53:00
8:53 PM,62.1,55.9,80,29.98,10.0,South,15.0,20.7,N/A,,Clear,190,2012-12-04 01:53:00
9:53 PM,62.1,55.0,78,29.96,10.0,South,16.1,23.0,N/A,,Clear,190,2012-12-04 02:53:00
10:53 PM,61.0,54.0,78,29.97,10.0,SSW,12.7,-,N/A,,Scattered Clouds,200,2012-12-04 03:53:00
11:53 PM,60.1,54.0,80,29.97,10.0,South,11.5,-,N/A,,Scattered Clouds,190,2012-12-04 04:53:00